Flag for Germany Weather past 2 weeks in Bad Mergentheim, Baden-Württemberg, Germany

36 °F

Light rain. Mostly cloudy.

Feels Like: 31 °F
Forecast: 28 / 38 °F
Wind: 6 mph from North

Location: Niederstetten

Current Time: Nov 26, 2015 at 7:01:34 PM

Latest Report: Nov 26, 2015 at 6:20 PM

Visibility: N/A

Pressure: 30.09 "Hg

Humidity: 93%

Dew point: 34 °F

Location of Bad MergentheimLocation

Historic Weather in Bad Mergentheim — Graph


Bad Mergentheim temperature yesterday

Maximum temperature yesterday: 36 °F (at 12:20 PM)
Minimum temperature yesterday: 30 °F (at 1:20 AM)
Average temperature yesterday: 34 °F

Past Weeks' High & Low Weather Summary

High57 °F (Nov 18, 2:20 AM)100% (Nov 12, 8:20 PM)30.39 "Hg (Nov 12, 8:20 PM)
Low28 °F (Nov 24, 7:20 AM)44% (Nov 16, 11:20 AM)29.39 "Hg (Nov 21, 12:20 PM)
Average43 °F84%29.97 "Hg
* Reported Nov 11 5:00 PM — Nov 26 5:20 PM, Bad Mergentheim, Weather by CustomWeather, © 2015

Note: Actual official high and low records may vary slightly from our data, if they occured in-between our weather recording intervals... More about our weather records


Bad Mergentheim weather history for previous 24 hours

Time TempWeatherWind HumidityBarometerVisibility
5:20 PM
Thu, Nov 26
37 °FPartly cloudy.5 mph87%30.07 "HgN/A
4:20 PM37 °FBroken clouds.8 mph87%30.04 "HgN/A
3:20 PM37 °FPartly sunny.6 mph93%30.01 "HgN/A
2:50 PM37 °FMostly cloudy.7 mph93%29.98 "HgN/A
2:20 PM37 °FMostly cloudy.5 mph93%29.98 "HgN/A
1:20 PM37 °FMostly cloudy.5 mph93%29.98 "HgN/A
12:20 PM37 °FMostly cloudy.7 mph93%29.95 "Hg6 mi
11:20 AM37 °FPartly sunny.7 mph93%29.95 "Hg5 mi
11:01 AM37 °FFog.6 mph93%29.92 "Hg3 mi
10:20 AM36 °FFog.6 mph100%29.92 "Hg2 mi
9:48 AM36 °FLight rain. Fog.3 mph93%29.92 "Hg1 mi
9:20 AM36 °FLight rain. Fog.5 mph93%29.89 "Hg2 mi
8:20 AM36 °FLight rain. Fog.6 mph93%29.86 "Hg1 mi
7:20 AM36 °FLight rain. Fog.6 mph93%29.83 "Hg1 mi
6:20 AM36 °FFog.5 mph93%29.83 "Hg3 mi
5:20 AM36 °FFog.5 mph93%29.80 "Hg2 mi
4:20 AM36 °FFog.6 mph93%29.77 "Hg2 mi
3:20 AM36 °FFog.5 mph93%29.77 "Hg3 mi
2:20 AM36 °FFog.3 mph93%29.77 "Hg2 mi
1:20 AM36 °FPassing clouds.6 mph93%29.74 "Hg5 mi
12:20 AM36 °FPassing clouds.5 mph93%29.74 "Hg4 mi
11:20 PM
Wed, Nov 25
36 °FPassing clouds.6 mph93%29.74 "Hg5 mi
10:20 PM34 °FLight rain. Partly cloudy.6 mph93%29.71 "Hg6 mi
9:46 PM36 °FRain showers. Fog.5 mph100%29.71 "Hg3 mi
9:20 PM36 °FLight rain. Fog.6 mph100%29.71 "Hg3 mi
8:20 PM36 °FPassing clouds.6 mph100%29.71 "Hg4 mi
7:20 PM36 °FPartly cloudy.7 mph93%29.71 "Hg4 mi
Weather by CustomWeather, © 2015

See weather overviewHow to use our weather pages